Location: Dammartin
(48.9032°N, 1.6195°E)
Time: 12:21:16
(UTC+00:00)

IRIDIUM 103 - Pass Details

Date: 03 February 2023
Orbit: 776 x 779 km, 86.4° (Epoch: 25 March)

Event Time Altitude Azimuth Distance (km) Brightness Sun altitude
Rises 18:43:40 0° 355° (N) 3,277 7.6 -18.2°
Reaches altitude 10° 18:46:02 10° 356° (N) 2,345 6.8 -18.6°
Maximum altitude 18:51:18 89° 265° (W) 787 4.3 -19.5°
Drops below altitude 10° 18:56:31 10° 178° (S) 2,325 6.8 -20.3°
Sets 18:58:51 0° 179° (S) 3,248 7.6 -20.7°
